Flag for Norway Weather past 2 weeks in Lillestrøm, Norway

Now
77 °F

Warm.


Feels Like: 79 °F
Forecast: 57 / 67 °F
Wind: 3 mph from South

Location: Oslo-Blindern

Current Time: Jul 5, 2015 at 8:29:36 PM

Latest Report: Jul 5, 2015 at 7:00 PM


Visibility: N/A

Pressure: 29.92 "Hg

Humidity: 47%

Dew point: 56 °F

Location of LillestrømLocation

Historic Weather in Lillestrøm — Graph

°F

Lillestrøm temperature yesterday

Maximum temperature yesterday: 77 °F (at 2:00 PM)
Minimum temperature yesterday: 62 °F (at 4:00 AM)
Average temperature yesterday: 69 °F

Past Weeks' High & Low Weather Summary

 TemperatureHumidityPressure
High80 °F (Jul 5, 4:00 PM)98% (Jun 25, 2:00 AM)30.34 "Hg (Jun 25, 2:00 AM)
Low48 °F (Jun 26, 12:00 AM)31% (Jul 2, 4:00 PM)29.65 "Hg (Jun 24, 1:00 PM)
Average63 °F68%29.96 "Hg
* Reported Jun 20 7:00 PM — Jul 5 7:00 PM, Lillestrøm, Weather by CustomWeather, © 2015

Note: Actual official high and low records may vary slightly from our data, if they occured in-between our weather recording intervals... More about our weather records

Advertising

Lillestrøm weather history for previous 24 hours

 ConditionsComfort  
Time TempWeatherWind HumidityBarometerVisibility
7:00 PM
Sun, Jul 5
77 °FWarm.3 mph47%29.92 "HgN/A
6:00 PM79 °FWarm.3 mph43%29.93 "HgN/A
5:00 PM80 °FWarm.2 mph43%29.95 "HgN/A
4:00 PM80 °FWarm.3 mph55%29.96 "HgN/A
3:00 PM78 °FWarm.2 mph60%29.98 "HgN/A
2:00 PM78 °FWarm.3 mph59%29.99 "HgN/A
1:00 PM77 °FWarm.3 mph59%30.01 "HgN/A
12:00 PM73 °FMild.1 mph60%30.01 "HgN/A
11:00 AM70 °FMild.2 mph71%30.04 "HgN/A
10:00 AM69 °FMild.2 mph72%30.05 "HgN/A
9:00 AM67 °FMild.2 mph75%30.05 "HgN/A
8:00 AM63 °FLow clouds.No wind87%30.06 "Hg8 mi
7:00 AM61 °FCool.2 mph91%30.06 "HgN/A
6:00 AM60 °FCool.1 mph92%30.06 "HgN/A
4:00 AM60 °FCool.1 mph92%30.06 "HgN/A
3:00 AM60 °FCool.1 mph92%30.06 "HgN/A
2:00 AM61 °FPassing clouds.1 mph92%30.06 "Hg43 mi
1:00 AM60 °FCool.2 mph90%30.07 "HgN/A
12:00 AM62 °FCool.2 mph81%30.07 "HgN/A
11:00 PM
Sat, Jul 4
63 °FOvercast.2 mph79%30.07 "Hg43 mi
10:00 PM65 °FMild.2 mph67%30.08 "HgN/A
9:00 PM67 °FMild.2 mph64%30.07 "HgN/A
8:00 PM70 °FPartly sunny.3 mph55%30.07 "Hg47 mi
Weather by CustomWeather, © 2015

See weather overviewHow to use our weather pages